Location: Home
(42.5358°N, 72.7383°W)
Time: 03:28:16
(UTC-04:00)

Vanguard 1 - Pass Details

Date: 05 June 2022
Orbit: 649 x 3832 km, 34.2° (Epoch: 24 June)

Event Time Altitude Azimuth Distance (km) Brightness Sun altitude
Rises 21:37:46 0° 199° (SSW) 3,534 12.7 -11.3°
Reaches altitude 10° 21:40:41 10° 181° (S) 2,899 12.1 -11.6°
Maximum altitude 21:45:41 20° 136° (SE) 2,782 11.7 -12.3°
Drops below altitude 10° 21:52:47 10° 95° (E) 4,340 12.9 -13.1°
Sets 21:58:35 0° 82° (E) 6,003 13.8 -13.8°
